Погода в Карнабе

Узбекистан     39°50′09″N   65°29′57″E
темп.,
°C
ветер,
м/с
пор.,
м/с
влажн.,
%
обл.,
%
осадки,
мм/ч
давл.,
гПа
погр.,
м
27 февраля, сб
сб2723:00−2зюз112342 0.0 1030106
02:00−3з1121100 0.0 1029170
05:00−3юз0123100 0.0 1029107
08:00−2ю2424100 0.0 1029254
11:00+1ю441690 0.0 1029632
14:00+4ююз45140 0.0 1028875
17:00+5ююз34140 0.0 1027802
20:00+1зсз00290 0.0 102822
28 февраля, вс
вс2823:00+1всв22230 0.0 102822
02:00+1в23310 0.0 102622
05:00+1св23380 0.0 102422
08:00+3всв33390 0.0 102429
11:00+9св33240 0.0 1022493
14:00+12с11190 0.0 1019937
17:00+13с221814 0.0 1018779
20:00+9всв3433100 0.0 101928
1 марта, пн
пн123:00+7в1237100 0.0 101922
02:00+7в2236100 0.0 101922
05:00+6вюв343867 0.0 101830
08:00+7вюв34370 0.0 101928
11:00+14ююв56220 0.0 1018557
14:00+18ююз710190 0.0 10171465
17:00+18юз79200 0.0 10161439
20:00+12зсз23321 0.0 101922
2 марта, вт
вт223:00+10сз113750 0.0 102022
02:00+11с3430100 0.0 102023
05:00+10св2332100 0.0 102023
08:00+10св3335100 0.0 102125
11:00+15ссз1224100 0.0 1021424
14:00+16зсз2222100 0.0 1020992
17:00+16сз3324100 0.0 10191273
20:00+13ссз2333100 0.0 102145
3 марта, ср
ср323:00+10св114490 0.0 102122
02:00+9ссз224296 0.0 102122
05:00+8с124490 0.0 102122
08:00+9с334092 0.0 102129
11:00+13сз123096 0.0 1020710
14:00+14з333087 0.0 10191387
17:00+14зсз433259 0.0 10171366
20:00+11ссз234233 0.0 101726